AirNav   ATP
 
 1289 users online  

29LL Monroe County Ambulance Service Heliport
Waterloo, Illinois, USA

GOING TO WATERLOO?


FAA INFORMATION EFFECTIVE 21 JUNE 2018

Location

FAA Identifier: 29LL
Lat/Long: 38-20-21.4000N / 090-09-49.9000W
38-20.356667N / 090-09.831667W
38.3392778 / -90.1638611
(estimated)
Elevation: 630 ft. / 192 m (estimated)
Variation: 00E (2000)
From city: 1 mile W of WATERLOO, IL
Time zone: UTC -5 (UTC -6 during Standard Time)
Zip code: 62298

Heliport Operations

Heliport use: Private use. Permission required prior to landing
Activation date: 02/2001
Control tower: no
ARTCC: KANSAS CITY CENTER
FSS: SAINT LOUIS FLIGHT SERVICE STATION
Attendance: CONTINUOUS
Segmented circle: no

Heliport Communications

WX ASOS at CPS (14 nm N): PHONE 618-332-0001

Nearby radio navigation aids

VOR radial/distance  VOR name  Freq  Var
CSXr160/26.5CARDINAL VOR/DME116.4500E
TOYr202/26.6TROY VORTAC116.0004E
STLr153/34.7ST LOUIS VORTAC117.4001E

 
NDB name  Hdg/Dist  Freq  Var  ID
ACORE204/11.935000ECP -.-. .--.
CIVIC MEMORIAL190/33.626301WCVM -.-. ...- --

Heliport Services

Runway Information

Helipad H1

Dimensions: 40 x 40 ft. / 12 x 12 m
Surface: asphalt
Latitude: 38-20.340000N
Longitude: 090-09.831667W
Elevation: 630.0 ft.
Traffic pattern: leftleft

Heliport Ownership and Management from official FAA records

Ownership: Privately-owned
Owner: MONROE COUNTY
100 S MAIN ST
WATERLOO, IL 62298
Phone 618-939-8681
Manager: CARLA HEISE
901 ILLINOIS AVE
WATERLOO, IL 62298
Phone 618-939-6175

Additional Remarks

A52-H1 MKD POWERLINE 270 FT & 235 FT S, BLDG 125 FT E & TREES 105 FT N.

Instrument Procedures

There are no published instrument procedures at 29LL.

Some nearby airports with instrument procedures:

KFES - Festus Memorial Airport (14 nm SW)
KCPS - St Louis Downtown Airport (14 nm N)
KBLV - Scott Air Force Base/MidAmerica Airport (20 nm NE)
KSAR - Sparta Community Airport-Hunter Field (25 nm SE)
KSTL - St Louis Lambert International Airport (26 nm N)
 
Loc | Ops | Rwys | IFR | FBO | Links
Com | Nav | Svcs | Stats | Notes

AirNav Hotels Sweepstakes
 
Area around 29LL (Monroe County Ambulance Service Heliport)
 
Road maps at: MapQuest Bing Google
 
Aerial photo
No photo
 
Sectional chart

 
Airport distance calculator
Flying to Monroe County Ambulance Service Heliport? Find the distance to fly.

From to 29LL

Sunrise and sunset
Times for 22-Jun-2018
 Local
(UTC-5)
 Zulu
(UTC)
Morning civil twilight05:0710:07
Sunrise05:3810:38
Sunset20:2701:27
Evening civil twilight20:5801:58

Current date and time
Zulu (UTC)  22-Jun-2018 13:59:11
Local (UTC-5)  22-Jun-2018 08:59:11
 
METAR
KCPS 
14nm N 
221353Z 26008KT 10SM BKN012 BKN019 OVC027 21/18 A2971 RMK AO2 SLP056 T02060183
KBLV 
19nm NE 
221348Z AUTO 28006KT 10SM BKN006 OVC018 20/19 A2969 RMK AO2 RAE01DZB01E02RAB20E47 SLP054 $
KSAR 
25nm SE 
221335Z AUTO 27005KT 10SM BKN006 OVC011 19/19 A2972 RMK AO2 T01930193
KSTL 
26nm N 
221351Z 29008KT 10SM FEW011 BKN018 BKN250 21/19 A2972 RMK AO2 SLP054 T02060189
TAF
KCPS 
14nm N 
221127Z 2212/2312 29006KT 6SM -SHRA OVC016 FM221600 29007KT P6SM VCSH OVC023 FM222200 30010G18KT P6SM OVC050 FM230600 VRB04KT P6SM BKN029 FM230900 VRB04KT P6SM SCT018
KBLV 
19nm NE 
221141Z 2211/2314 VRB06KT 9000 -SHRA BKN025 OVC050 QNH2964INS TEMPO 2211/2213 4800 -TSRA OVC008CB BECMG 2212/2213 29009KT 6000 -SHRA BKN015 OVC025 QNH2968INS BECMG 2220/2221 30012G18KT 8000 -SHRA OVC015 QNH2968INS BECMG 2223/2224 30012KT 9999 NSW OVC015 QNH2970INS TX23/2217Z TN16/2308Z
NOTAMs
Click for the latest NOTAMs
NOTAMs are issued by the DoD/FAA and will open in a separate window not controlled by AirNav.

 

 
 

Would you like to see your business listed on this page?

 If your business provides an interesting product or service to pilots, flight crews, aircraft, or users of the Monroe County Ambulance Service Heliport, you should consider listing it here.  To start the listing process, click on the button below
 
Add a business
 

Other Pages about Monroe County Ambulance Service Heliport

Update a link
 
Copyright © AirNav, LLC. All rights reserved. Privacy Policy  Contact